User: anonymous
Location: Unspecified
(0.0000°N, 0.0000°E)
Time: 17:39:17
(UTC+00:00)
Language:

Transit 2A - Orbit

View from above orbital plane
View from above orbital plane
View from above satellite
View from above satellite

Ground track
Ground track

The orbit data is extracted from the following two-line orbital elements,

1 00045U 60007A   14234.12350646  .00000094  00000-0  51267-4 0  2130
2 00045 066.6943 222.8717 0250655 062.1660 006.6152 14.33028741817940
Epoch (UTC): 22 August 2014 02:57:50
Eccentricity: 0.0250655
inclination: 66.6943°
perigee height: 602 km
apogee height: 961 km
right ascension of ascending node: 222.8717°
argument of perigee: 62.1660°
revolutions per day: 14.33028741
mean anomaly at epoch: 6.6152°
orbit number at epoch: 81794

The dashed part of the orbit path shows where the satellite is in the earth's shadow,  

DLR